Regional Weather Roundup
Issued by NWS

Home | Current Version | Previous Version | Graphics & Text | Print | Product List | Glossary Off
Versions: 1 2 3 4 5 6 7 8 9 10 11 12 13 14 15 16 17 18 19 20 21 22 23 24 25 26 27 28 29 30 31 32 33 34 35 36 37 38 39 40 41 42 43 44 45 46 47 48 49 50

470
ASUS43 KTOP 271159
RWRKS

WEATHER ROUNDUP FOR KANSAS
NATIONAL WEATHER SERVICE GOODLAND KS
700 AM CDT SAT MAY 27 2017

NOTE:  "FAIR" INDICATES FEW OR NO CLOUDS BELOW 12,000 FEET WITH NO
SIGNIFICANT WEATHER AND/OR OBSTRUCTIONS TO VISIBILITY.

KSZ001>006-013>018-027>032-041>047-271300-
NORTHWEST KANSAS

CITY           SKY/WX    TMP DP  RH WIND       PRES   REMARKS
GOODLAND       CLOUDY    52  51  97 NW16      29.93R
6HR MIN TEMP:  50; 6HR MAX TEMP:  56; 6HR PCP:  0.09;

HAYS           TSTM      59  56  89 E10       29.89F
HILL CITY      CLOUDY    58  57  97 CALM      29.87F
6HR MIN TEMP:  53; 6HR MAX TEMP:  67; 6HR PCP:  0.80;

RUSSELL        TSTM      59  57  93 N9        29.92R
6HR MIN TEMP:  56; 6HR MAX TEMP:  66; 6HR PCP:  0.40;

$$

KSZ061>065-074>080-084>089-271300-
SOUTHWEST KANSAS

CITY           SKY/WX    TMP DP  RH WIND       PRES   REMARKS
DODGE CITY     PTCLDY    58  54  86 NE12      29.84S
6HR MIN TEMP:  58; 6HR MAX TEMP:  70;

ELKHART          N/A     53  45  74 W7          N/A
GARDEN CITY    MOCLDY    58  52  80 NE21G26   29.85R
6HR MIN TEMP:  57; 6HR MAX TEMP:  68;

GREAT BEND     CLOUDY    60  56  86 NE13      29.87R
LIBERAL        PTCLDY    63  60  90 NE7       29.81R
$$

KSZ066>073-081>083-090>101-271300-
SOUTHEAST KANSAS

CITY           SKY/WX    TMP DP  RH WIND       PRES   REMARKS
CHANUTE        MOCLDY    69  66  90 E6        29.79R
6HR MIN TEMP:  63; 6HR MAX TEMP:  70;

COFFEYVILLE    CLEAR     68  68 100 SE6       29.77R FOG
6HR MIN TEMP:  66; 6HR MAX TEMP:  71;

HUTCHINSON     PTCLDY    63  57  81 NE12      29.84F
6HR MIN TEMP:  63; 6HR MAX TEMP:  69;

MEDICINE LODGE   N/A     69  62  78 NE13      29.79R
NEWTON         CLOUDY    62  58  86 NE14      29.88S
PARSONS        PTCLDY    71  68  90 CALM      29.77F
6HR MIN TEMP:  64; 6HR MAX TEMP:  71;

WICHITA INTL   PTCLDY    68  65  90 N13G20    29.84R
6HR MIN TEMP:  67; 6HR MAX TEMP:  70;

WICHITA JABRA  PTCLDY    65  63  93 N12       29.85R
6HR MIN TEMP:  62; 6HR MAX TEMP:  67;

WINFIELD       CLEAR     68  65  90 N8        29.82R
6HR MIN TEMP:  66; 6HR MAX TEMP:  70;

$$

KSZ007>012-019>026-033>040-048>060-102>105-271300-
NORTHEAST KANSAS

CITY           SKY/WX    TMP DP  RH WIND       PRES   REMARKS
CONCORDIA      LGT RAIN  58  58 100 NE7G20    29.83F
6HR MIN TEMP:  58; 6HR MAX TEMP:  65; 6HR PCP:  0.32;

EMPORIA        CLOUDY    65  64  97 N3        29.88R
6HR MIN TEMP:  61; 6HR MAX TEMP:  67;

LAWRENCE       CLOUDY    66  65  96 CALM      29.83R FOG
6HR MIN TEMP:  61; 6HR MAX TEMP:  66;

MANHATTAN      TSTM      61  59  93 NE8       29.89F
6HR MIN TEMP:  60; 6HR MAX TEMP:  65; 6HR PCP:  0.52;

OLATHE IND     CLOUDY    67  65  93 E8        29.81F
6HR MIN TEMP:  62; 6HR MAX TEMP:  70;

OLATHE EXE     SUNNY     68  67  96 E8        29.81F
6HR MIN TEMP:  63; 6HR MAX TEMP:  69;

SALINA         CLOUDY    62  59  90 N6        29.88F
6HR MIN TEMP:  61; 6HR MAX TEMP:  71; 6HR PCP:  0.27;

TOPEKA BILLARD CLOUDY    66  66 100 W12       29.90R
6HR MIN TEMP:  63; 6HR MAX TEMP:  67;

TOPEKA FORBES  CLOUDY    67  65  93 W13       29.91R
6HR MIN TEMP:  61; 6HR MAX TEMP:  67;

$$




USA.gov is the U.S. government's official web portal to all federal, state and local government web resources and services.